Location: *
(44.3925°N, 5.4708°E)
Time: 08:21:22
(UTC+00:00)

NOSS 3-3 (C) - Pass Details

Date: 18 September 2019
Orbit: 849 x 1364 km, 63.4° (Epoch: 08 October)

Event Time Altitude Azimuth Distance (km) Brightness Sun altitude
Rises 18:08:29 0° 214° (SW) 3,442 7.3 -5.2°
Reaches altitude 10° 18:10:52 10° 214° (SW) 2,542 6.6 -5.6°
Maximum altitude 18:16:45 88° 124° (SE) 953 4.0 -6.7°
Drops below altitude 10° 18:23:23 10° 38° (NE) 2,847 6.2 -7.8°
Sets 18:26:10 0° 38° (NE) 3,883 6.9 -8.3°
